Theta_e
353 357 355 357 360 362 363 357 357 356 357 355 358 354 355 355 354 357 355 360 363 363 362 362 360 359 360 359 359 357 357 357 354 354 354 354 353 352 352 351 350 350 350
358 357 354 355 356 361 358 359 356 354 354 357 355 355 354 355 355 356 354 357 359 363 363 363 362 360 359 359 359 358 357 354 352 353 353 354 353 354 352 351 351 350 349
356 354 353 352 357 361 358 358 357 357 355 356 356 355 355 354 357 352 357 359 356 361 363 363 362 361 359 360 361 358 357 355 354 354 353 354 354 354 354 353 352 350 351
356 358 353 351 355 359 358 355 352 351 353 354 354 354 354 354 355 355 355 354 354 354 361 363 362 360 361 359 360 358 358 354 354 353 353 354 353 354 353 353 353 353 352
356 354 353 352 355 356 357 356 349 351 349 351 352 354 353 354 355 353 356 353 353 355 355 359 359 358 360 357 358 358 356 355 354 354 353 352 353 353 353 353 353 353 353
353 353 353 353 353 350 354 356 350 350 349 347 351 351 349 354 357 356 353 352 354 356 355 353 352 354 359 357 356 358 356 354 356 355 353 352 353 354 353 353 352 352 353
352 352 350 352 354 352 351 353 352 349 349 350 346 345 345 351 352 354 353 352 352 354 354 353 352 351 350 354 355 359 357 356 354 355 354 351 354 353 353 352 351 352 352
350 350 350 351 352 348 351 352 350 347 349 348 342 342 334 343 348 351 352 352 349 352 352 353 349 349 350 351 354 358 357 357 356 355 352 353 353 353 351 351 350 351 351
349 349 350 350 350 353 348 350 349 345 344 348 347 338 332 334 341 349 350 349 349 349 350 351 351 351 349 351 353 355 357 357 358 357 355 355 353 353 351 350 350 350 351
349 349 349 350 352 352 347 351 348 342 343 342 343 346 343 346 335 334 345 349 350 348 347 349 349 352 351 350 354 354 352 352 355 355 356 357 354 352 351 351 350 349 350
350 348 348 349 351 352 351 349 350 345 344 341 339 340 342 343 344 336 334 339 345 348 348 347 350 350 352 350 352 352 353 352 352 354 355 355 356 354 353 352 351 351 351
349 348 347 349 350 350 349 347 349 348 345 343 341 339 339 337 340 338 334 337 337 342 346 347 348 347 349 350 352 353 353 351 350 350 352 355 355 355 354 353 352 351 351
347 346 347 347 349 351 349 350 348 345 345 342 339 340 341 341 344 343 340 336 334 340 341 346 346 347 347 348 350 352 352 350 348 347 347 348 349 351 351 351 349 351 351
348 348 348 348 348 349 349 347 350 344 346 342 342 343 344 344 345 344 340 337 332 335 337 338 346 347 349 349 351 352 349 348 346 344 344 345 347 348 349 350 351 353 353
349 348 347 347 346 347 349 346 344 344 342 341 340 341 339 339 344 343 346 345 336 327 329 334 334 344 346 349 350 348 349 346 347 344 343 341 343 342 347 349 345 341 340
347 347 347 346 344 344 345 345 342 345 342 341 342 342 341 338 342 342 344 346 343 337 328 336 339 342 344 347 349 347 343 341 340 340 337 336 337 338 337 337 336 336 335
342 340 342 347 346 343 344 341 342 342 341 340 342 341 339 340 338 341 342 343 339 340 332 336 339 344 341 341 341 342 338 331 328 330 329 328 327 328 328 328 327 328 328
345 341 341 339 342 342 341 341 339 340 338 338 338 337 336 339 339 340 342 341 341 342 336 332 336 339 337 340 337 335 333 328 324 327 327 326 325 324 323 322 320 319 318
342 342 342 342 340 337 337 334 333 331 331 332 330 330 330 333 333 334 338 338 340 340 339 334 332 338 335 335 336 333 329 329 325 327 326 323 322 321 319 318 316 314 312
341 340 338 338 338 338 336 333 330 329 329 327 325 324 325 325 326 328 332 332 335 335 335 332 331 329 330 335 335 330 326 326 321 323 327 322 321 322 320 318 318 316 313
343 340 337 338 337 335 334 332 330 328 326 323 322 322 322 323 323 324 325 322 325 332 332 330 328 328 329 332 330 329 330 328 323 322 321 320 319 320 319 321 318 316 314
341 340 338 336 335 332 326 328 330 329 325 322 319 317 316 315 317 319 321 322 319 321 329 329 330 327 328 326 326 323 323 318 316 321 319 320 322 321 319 318 317 316 312
338 336 330 329 327 322 317 324 328 332 327 326 323 322 322 319 319 316 320 318 315 318 324 326 323 321 319 320 321 320 318 317 316 317 316 312 319 317 315 314 316 314 311
333 330 327 325 321 311 311 315 324 330 325 318 320 318 315 313 314 319 316 311 307 306 310 311 308 308 309 312 315 317 316 317 318 318 317 309 311 309 311 313 316 313 311
324 322 321 320 317 309 307 309 321 318 314 311 310 310 312 311 313 316 315 311 309 308 310 310 310 309 310 311 312 313 308 308 308 311 312 309 308 307 307 307 312 314 311
319 316 314 314 311 309 304 305 316 315 311 309 307 305 307 306 306 309 317 315 309 309 313 312 311 310 312 309 313 311 309 306 305 305 308 306 306 306 302 310 312 310 310
Wind_Speed
3 4 3 3 2 3 2 3 3 3 4 6 5 9 9 7 8 4 4 15 15 14 14 14 14 15 14 13 14 13 14 12 10 10 11 11 11 10 10 9 8 8 8
4 3 4 4 3 3 4 2 3 3 3 4 5 6 7 6 7 8 7 8 16 14 14 14 14 15 15 14 13 13 14 14 12 11 11 11 10 11 10 11 10 10 8
5 6 5 5 4 4 5 4 3 2 3 4 6 5 5 6 6 4 4 5 9 15 14 13 14 14 14 14 14 12 13 14 14 12 11 11 11 11 11 11 11 10 9
8 5 5 6 4 3 3 3 3 3 4 4 4 4 4 6 4 7 7 4 7 7 12 13 12 11 13 14 15 13 13 14 14 12 12 11 12 13 12 12 11 11 10
8 7 6 6 7 3 4 3 2 3 2 3 3 2 2 3 4 6 4 10 9 5 5 13 10 11 14 14 12 15 17 15 15 12 12 12 13 13 13 12 12 11 11
10 7 6 7 7 6 4 3 4 4 2 3 3 3 5 5 5 4 4 3 6 7 7 7 6 4 16 16 14 14 17 16 14 11 11 11 13 13 14 14 13 12 12
8 8 7 7 5 5 6 6 3 3 2 1 4 2 4 4 5 5 4 3 4 6 6 6 5 3 5 15 14 11 16 15 15 12 9 9 10 14 13 12 12 12 12
9 8 8 8 7 6 7 7 5 2 2 4 2 1 2 4 6 6 4 4 6 6 7 7 8 9 9 8 9 12 15 14 15 15 15 13 12 12 13 13 13 13 12
8 9 9 8 7 7 6 7 6 6 4 3 5 3 2 3 1 2 5 5 5 4 7 8 10 11 11 7 9 12 14 12 11 12 13 13 11 12 13 13 15 13 12
8 8 9 9 8 6 9 7 6 4 5 3 2 5 7 2 2 2 2 3 4 5 6 6 8 9 10 8 10 13 14 12 12 11 11 12 12 11 12 13 13 12 11
7 8 9 10 8 7 9 8 8 6 5 5 6 1 6 5 4 3 1 1 4 4 5 6 4 4 7 8 5 7 13 14 13 12 11 10 11 11 11 11 11 12 13
5 7 9 9 9 9 9 8 7 8 7 8 3 4 4 4 2 1 1 2 4 4 5 6 6 6 5 4 9 10 12 12 11 10 9 10 10 10 10 11 10 11 12
4 6 8 8 7 8 8 9 9 8 7 5 5 6 6 6 2 2 1 2 2 2 4 7 6 5 6 6 5 10 14 11 10 9 10 8 8 7 9 8 8 11 12
3 5 6 7 9 9 7 9 5 6 6 5 5 3 4 2 1 1 2 1 3 1 2 3 4 5 4 5 5 14 7 11 10 9 7 7 8 9 9 11 10 6 5
1 3 6 6 7 9 8 8 6 7 6 5 4 3 3 3 4 3 4 3 2 2 2 1 2 2 2 4 6 7 6 10 9 8 8 7 8 7 6 5 4 4 3
4 2 3 5 5 6 8 8 7 7 6 4 4 4 2 2 3 5 5 1 2 1 1 1 2 5 6 5 7 8 9 11 7 9 8 7 8 8 7 5 5 6 8
6 6 4 6 5 5 5 6 5 7 6 6 4 3 5 4 4 3 3 1 2 2 2 1 1 3 3 5 4 6 6 6 6 11 12 11 11 10 11 11 12 13 14
4 4 6 5 7 8 7 6 6 6 7 6 5 5 7 6 3 4 2 3 4 3 3 5 1 1 3 4 4 7 4 6 6 10 11 11 11 11 13 14 13 13 13
5 6 6 7 9 8 8 8 9 9 9 9 9 9 7 7 7 7 6 5 3 2 2 4 3 2 2 1 4 5 6 5 4 10 12 13 13 12 12 13 13 12 11
5 7 7 8 8 8 8 8 9 9 9 9 8 8 7 7 7 7 6 6 4 4 3 1 4 2 2 3 2 4 3 2 4 4 6 7 10 11 11 12 12 11 10
6 7 7 8 8 8 6 7 8 8 8 9 8 7 7 9 13 11 5 8 8 4 2 1 3 3 6 3 2 1 2 4 2 3 4 4 4 4 5 9 11 11 10
6 7 6 7 6 7 5 8 8 7 7 7 7 6 5 8 9 10 10 17 14 5 2 5 2 4 6 3 3 3 2 2 2 4 3 3 6 5 5 5 12 11 10
12 12 11 9 10 9 12 5 7 6 6 6 7 5 4 3 2 5 12 17 16 19 17 10 9 6 7 6 5 5 5 4 3 2 2 1 2 3 5 6 10 11 10
11 10 12 11 9 10 14 9 5 7 8 11 9 9 8 5 6 5 10 10 11 13 13 9 11 9 7 8 6 3 2 1 2 4 3 1 4 3 4 4 12 11 9
11 12 11 10 10 11 16 14 9 11 11 11 11 11 8 8 11 10 10 9 8 8 10 13 12 12 11 10 9 6 5 4 2 2 5 3 1 2 2 4 5 12 11
12 11 12 12 14 12 20 20 7 7 9 8 9 10 18 12 17 14 8 8 9 7 6 3 3 3 3 6 9 7 5 4 2 0 3 3 4 2 3 1 2 4 6
Wind_Direction
225 193 217 192 202 206 193 182 207 207 200 214 219 216 201 193 213 157 163 178 172 174 181 184 191 196 197 189 193 189 185 179 187 199 191 190 187 189 183 177 180 183 181
200 217 198 211 212 220 203 177 195 196 207 218 217 230 214 202 213 215 177 180 178 182 186 191 193 202 200 199 203 197 185 182 186 203 208 208 198 196 193 187 188 188 187
224 212 212 210 205 175 225 169 168 183 214 215 222 203 206 215 200 184 161 183 183 185 193 199 201 208 200 197 203 202 185 179 192 205 207 206 201 201 201 199 198 197 193
203 205 221 194 187 204 186 192 169 198 215 218 208 213 212 223 232 204 182 120 198 183 195 200 206 208 202 206 203 196 175 182 201 207 208 211 203 202 205 206 206 204 202
204 212 233 222 174 213 176 197 193 176 216 235 227 195 267 198 201 237 209 168 197 163 172 196 197 220 213 215 215 199 180 204 205 209 213 218 211 207 209 207 209 208 206
186 215 233 232 178 186 187 196 189 212 195 200 219 210 227 203 194 246 268 191 179 180 163 151 173 240 229 219 223 208 188 211 205 214 219 224 216 210 207 208 205 206 209
211 196 220 229 204 201 180 184 191 217 235 178 221 257 253 252 221 203 212 221 224 179 164 160 156 170 292 232 224 205 202 205 201 206 201 242 222 212 205 208 207 208 209
227 208 205 230 202 200 189 185 182 141 183 205 189 146 259 238 230 208 173 219 212 184 178 171 173 200 214 221 211 204 199 203 209 208 200 217 222 205 197 199 206 207 210
239 213 203 217 220 190 192 183 180 174 164 211 211 197 231 224 181 194 192 201 235 188 170 185 190 199 203 212 203 198 201 200 210 206 202 214 205 196 199 193 219 209 209
234 223 206 209 220 195 199 178 177 178 140 224 239 252 248 202 159 249 183 207 200 196 184 191 209 188 194 189 199 192 202 197 201 207 205 204 201 199 204 210 216 215 207
229 227 206 204 208 207 201 182 174 180 159 183 210 205 247 222 202 251 65 232 241 185 187 189 199 194 199 209 179 196 209 193 198 209 210 220 211 205 201 209 217 216 214
211 217 215 203 200 206 186 181 179 186 178 207 181 260 270 243 218 212 259 208 201 197 195 201 174 185 193 191 195 192 185 193 196 202 214 221 210 203 209 210 219 225 227
188 205 209 202 199 207 185 180 180 186 198 191 190 204 215 227 228 224 231 253 188 210 196 201 173 184 190 196 189 173 188 187 186 195 211 223 227 212 214 198 224 232 231
202 201 196 202 200 194 197 195 177 177 186 162 192 179 300 266 204 236 233 312 311 175 229 25 180 189 189 179 194 172 174 178 185 195 198 211 200 204 208 206 210 208 215
164 191 201 199 209 196 187 186 151 143 144 142 199 177 219 271 318 272 219 241 226 337 275 218 258 74 212 131 150 168 159 174 173 173 184 194 194 193 186 175 165 165 166
42 177 201 176 193 184 187 149 138 148 148 142 171 196 209 257 290 344 312 359 323 151 164 120 9 36 29 96 82 86 93 91 98 123 122 120 113 121 132 132 116 94 84
51 43 71 114 130 139 142 150 126 148 137 151 157 183 233 258 268 193 301 336 31 333 111 88 105 57 65 115 100 100 89 89 83 86 89 87 89 95 99 98 93 88 82
101 101 104 82 94 89 67 84 121 91 83 76 74 69 39 8 313 332 294 334 55 37 103 137 117 136 63 79 160 112 140 103 103 93 95 95 93 94 95 94 88 84 80
71 52 53 107 113 93 81 80 81 79 68 59 52 55 36 33 29 351 9 25 14 6 64 136 160 130 125 207 95 71 84 106 101 115 94 99 110 112 112 110 104 94 87
93 79 68 63 71 97 96 91 95 83 74 63 51 44 36 41 41 9 348 9 355 359 17 165 135 136 131 160 126 129 134 171 155 126 113 144 135 134 131 121 111 104 96
131 116 112 101 96 93 91 92 90 93 93 83 66 55 43 46 55 50 35 2 357 331 10 336 204 178 162 158 138 73 180 133 52 47 130 163 153 151 147 130 121 113 98
113 122 115 109 76 77 72 110 113 105 96 94 98 92 85 74 74 86 81 55 35 347 9 206 119 103 38 69 38 27 44 102 113 10 352 322 163 176 156 138 116 128 120
74 76 70 67 58 44 11 157 136 121 119 126 139 146 130 114 245 131 62 52 31 19 45 47 69 55 61 21 37 47 39 25 76 219 31 308 50 89 87 131 152 145 153
76 75 67 63 61 35 29 25 170 132 86 58 47 64 73 45 13 60 85 71 57 46 41 57 62 51 47 14 13 13 45 287 249 70 61 16 28 10 2 114 161 170 177
78 72 66 63 63 34 17 33 76 77 71 64 55 40 52 39 30 73 95 98 85 81 61 74 83 84 66 50 36 25 10 9 6 72 17 16 170 232 270 264 172 189 213
77 67 61 47 50 46 20 32 79 108 103 87 63 51 48 55 50 45 66 82 71 41 50 65 88 68 79 65 53 50 2 339 352 236 31 344 358 352 316 171 93 191 233